Lander, WY

6:27 PM MST on February 26, 2017 (GMT -0700)
South Pass

Weather History for KFWZ - May, 2013

Change the Weather History Date:

Friday, May 24, 2013

  Actual Average (KLND) Record (KLND)
Temperature  
Mean Temperature 49 °F -  
Max Temperature 57 °F 70 °F 85 °F (1985)
Min Temperature 41 °F 43 °F 29 °F (2007)
Degree Days  
Heating Degree Days 16    
Moisture  
Dew Point 9 °F    
Average Humidity 22    
Maximum Humidity 49    
Minimum Humidity 11    
Precipitation  
Precipitation 0.00 in - - ()
Sea Level Pressure  
Sea Level Pressure 30.02 in    
Wind  
Wind Speed 14 mph (WSW)    
Max Wind Speed 25 mph    
Max Gust Speed 36 mph    
Visibility 10 miles    
Events      
Averages and records for this station are not official NWS values.
T = Trace of Precipitation, MM = Missing Value Source: NWS Daily Summary

Daily Weather History Graph

Daily Weather History Graph

Search for Another Location

Airport or City:

Trip Planner

Search our weather history database for the weather conditions in past years. The results will help you decide how hot, cold, wet, or windy it might be!

Date:

Astronomy

May. 24, 2013 Rise Set
Actual Time 5:45 AM MDT 8:39 PM MDT
Civil Twilight 5:11 AM MDT 9:12 PM MDT
Nautical Twilight 4:29 AM MDT 9:55 PM MDT
Astronomical Twilight 3:40 AM MDT 10:44 PM MDT
Moon 8:24 PM MDT (5/24) 5:20 AM MDT (5/24)
Length of Visible Light 16h 01m
Length of Day
14h 54m
Full, 100% of the Moon is Illuminated
May 24
Full
May 24
Full
May 31
Last Quarter
Jun 8
New
Jun 16
First Quarter

Hourly Weather History & Observations

Time (MDT) Temp. Windchill Dew Point Humidity Pressure Visibility Wind Dir Wind Speed Gust Speed Precip Events Conditions
12:15 AM 51.8 °F - 24.8 °F 35% 29.87 in 10.0 mi WNW 5.8 mph - N/A   Clear
12:35 AM 50.0 °F - 23.0 °F 35% 29.88 in 10.0 mi West 6.9 mph - N/A   Clear
12:55 AM 50.0 °F - 23.0 °F 35% 29.88 in 10.0 mi West 9.2 mph - N/A   Clear
1:15 AM 50.0 °F - 23.0 °F 35% 29.89 in 10.0 mi WSW 11.5 mph 18.4 mph N/A   Clear
1:35 AM 50.0 °F - 23.0 °F 35% 29.89 in 10.0 mi West 12.7 mph - N/A   Clear
1:55 AM 46.4 °F 40.7 °F 23.0 °F 40% 29.90 in 10.0 mi WSW 12.7 mph 21.9 mph N/A   Clear
2:15 AM 46.4 °F 40.4 °F 24.8 °F 43% 29.91 in 10.0 mi West 13.8 mph 25.3 mph N/A   Clear
2:35 AM 44.6 °F 37.8 °F 24.8 °F 46% 29.91 in 10.0 mi West 15.0 mph 20.7 mph N/A   Clear
2:55 AM 44.6 °F 37.8 °F 24.8 °F 46% 29.92 in 10.0 mi WSW 15.0 mph 19.6 mph N/A   Clear
3:15 AM 44.6 °F 38.8 °F 24.8 °F 46% 29.92 in 10.0 mi West 11.5 mph 23.0 mph N/A   Clear
3:35 AM 44.6 °F 37.4 °F 23.0 °F 43% 29.93 in 10.0 mi West 16.1 mph 24.2 mph N/A   Clear
3:55 AM 42.8 °F 35.4 °F 23.0 °F 46% 29.92 in 10.0 mi West 15.0 mph 24.2 mph N/A   Clear
4:15 AM 42.8 °F 34.0 °F 23.0 °F 46% 29.92 in 10.0 mi West 20.7 mph 27.6 mph N/A   Clear
4:35 AM 41.0 °F 32.2 °F 23.0 °F 49% 29.93 in 10.0 mi WSW 18.4 mph 25.3 mph N/A   Clear
4:55 AM 41.0 °F 31.9 °F 14.0 °F 33% 29.94 in 10.0 mi West 19.6 mph 26.5 mph N/A   Clear
5:15 AM 41.0 °F 31.9 °F 14.0 °F 33% 29.93 in 10.0 mi West 19.6 mph 28.8 mph N/A   Clear
5:35 AM 41.0 °F 32.5 °F 8.6 °F 26% 29.93 in 10.0 mi West 17.3 mph 29.9 mph N/A   Clear
5:55 AM 42.8 °F 34.0 °F 8.6 °F 25% 29.95 in 10.0 mi West 20.7 mph 34.5 mph N/A   Clear
6:15 AM 42.8 °F 34.3 °F 6.8 °F 23% 29.97 in 10.0 mi West 19.6 mph 27.6 mph N/A   Clear
6:35 AM 41.0 °F 32.8 °F 5.0 °F 23% 29.98 in 10.0 mi West 16.1 mph 27.6 mph N/A   Clear
6:55 AM 41.0 °F 32.2 °F 1.4 °F 19% 29.98 in 10.0 mi West 18.4 mph 27.6 mph N/A   Clear
7:15 AM 41.0 °F 32.8 °F 3.2 °F 21% 30.00 in 10.0 mi WSW 16.1 mph 25.3 mph N/A   Clear
7:35 AM 41.0 °F 31.9 °F 5.0 °F 23% 30.00 in 10.0 mi West 19.6 mph 26.5 mph N/A   Clear
7:55 AM 41.0 °F 32.5 °F 1.4 °F 19% 30.01 in 10.0 mi West 17.3 mph 29.9 mph N/A   Clear
8:15 AM 41.0 °F 32.8 °F 5.0 °F 23% 30.02 in 10.0 mi WSW 16.1 mph 24.2 mph N/A   Clear
8:35 AM 41.0 °F 33.5 °F 8.6 °F 26% 30.03 in 10.0 mi WSW 13.8 mph 26.5 mph N/A   Clear
8:55 AM 42.8 °F 35.1 °F 10.4 °F 27% 30.04 in 10.0 mi WSW 16.1 mph 21.9 mph N/A   Clear
9:15 AM 42.8 °F 35.1 °F 8.6 °F 25% 30.05 in 10.0 mi WSW 16.1 mph 21.9 mph N/A   Clear
9:35 AM 42.8 °F 35.8 °F 12.2 °F 29% 30.05 in 10.0 mi WSW 13.8 mph 19.6 mph N/A   Clear
9:55 AM 44.6 °F 37.4 °F 10.4 °F 25% 30.05 in 10.0 mi WSW 16.1 mph 24.2 mph N/A   Clear
10:15 AM 44.6 °F 37.2 °F 8.6 °F 23% 30.05 in 10.0 mi SW 17.3 mph 24.2 mph N/A   Clear
10:35 AM 46.4 °F 39.5 °F 6.8 °F 20% 30.05 in 10.0 mi SW 17.3 mph 24.2 mph N/A   Clear
10:55 AM 46.4 °F 39.2 °F 8.6 °F 22% 30.05 in 10.0 mi SW 18.4 mph 25.3 mph N/A   Clear
11:15 AM 46.4 °F 39.2 °F 5.0 °F 18% 30.05 in 10.0 mi SW 18.4 mph 26.5 mph N/A   Clear
11:35 AM 48.2 °F - 10.4 °F 22% 30.06 in 10.0 mi WSW 17.3 mph 27.6 mph N/A   Clear
11:55 AM 48.2 °F - 10.4 °F 22% 30.06 in 10.0 mi SW 17.3 mph 26.5 mph N/A   Clear
12:15 PM 48.2 °F - 10.4 °F 22% 30.06 in 10.0 mi WSW 20.7 mph 25.3 mph N/A   Clear
12:35 PM 50.0 °F - 10.4 °F 20% 30.06 in 10.0 mi WSW 16.1 mph 26.5 mph N/A   Clear
12:55 PM 50.0 °F - 10.4 °F 20% 30.07 in 10.0 mi SW 18.4 mph 26.5 mph N/A   Clear
1:15 PM 51.8 °F - 5.0 °F 15% 30.07 in 10.0 mi WSW 20.7 mph 26.5 mph N/A   Clear
1:35 PM 51.8 °F - 1.4 °F 13% 30.07 in 10.0 mi WSW 21.9 mph 29.9 mph N/A   Clear
1:55 PM 51.8 °F - 3.2 °F 14% 30.06 in 10.0 mi SW 19.6 mph 25.3 mph N/A   Clear
2:15 PM 53.6 °F - 3.2 °F 13% 30.06 in 10.0 mi WSW 17.3 mph 26.5 mph N/A   Clear
2:35 PM 53.6 °F - 3.2 °F 13% 30.06 in 10.0 mi SW 21.9 mph 31.1 mph N/A   Clear
2:55 PM 53.6 °F - 3.2 °F 13% 30.06 in 10.0 mi WSW 24.2 mph 33.4 mph N/A   Clear
3:15 PM 55.4 °F - 1.4 °F 11% 30.06 in 10.0 mi SW 23.0 mph 29.9 mph N/A   Clear
3:35 PM 55.4 °F - 3.2 °F 12% 30.05 in 10.0 mi SSW 19.6 mph 29.9 mph N/A   Clear
3:55 PM 55.4 °F - 3.2 °F 12% 30.06 in 10.0 mi WSW 25.3 mph 33.4 mph N/A   Clear
4:15 PM 55.4 °F - 3.2 °F 12% 30.05 in 10.0 mi SW 21.9 mph 33.4 mph N/A   Clear
4:35 PM 55.4 °F - 3.2 °F 12% 30.05 in 10.0 mi WSW 24.2 mph 29.9 mph N/A   Clear
4:55 PM 55.4 °F - 5.0 °F 13% 30.05 in 10.0 mi WSW 20.7 mph 35.7 mph N/A   Clear
5:15 PM 57.2 °F - 5.0 °F 12% 30.05 in 10.0 mi WSW 25.3 mph 31.1 mph N/A   Clear
5:35 PM 55.4 °F - 6.8 °F 14% 30.05 in 10.0 mi WSW 18.4 mph 27.6 mph N/A   Clear
5:55 PM 55.4 °F - 5.0 °F 13% 30.05 in 10.0 mi SW 18.4 mph 27.6 mph N/A   Clear
6:15 PM 55.4 °F - 5.0 °F 13% 30.05 in 10.0 mi SW 18.4 mph 27.6 mph N/A   Clear
6:35 PM 55.4 °F - 3.2 °F 12% 30.05 in 10.0 mi SW 20.7 mph 28.8 mph N/A   Clear
6:55 PM 55.4 °F - 5.0 °F 13% 30.05 in 10.0 mi WSW 21.9 mph 31.1 mph N/A   Clear
7:15 PM 55.4 °F - 5.0 °F 13% 30.05 in 10.0 mi SW 17.3 mph 27.6 mph N/A   Clear
7:35 PM 55.4 °F - 5.0 °F 13% 30.05 in 10.0 mi WSW 15.0 mph 23.0 mph N/A   Clear
7:55 PM 55.4 °F - 5.0 °F 13% 30.06 in 10.0 mi WSW 17.3 mph 25.3 mph N/A   Clear
8:15 PM 53.6 °F - 5.0 °F 14% 30.07 in 10.0 mi WSW 13.8 mph 19.6 mph N/A   Clear
8:35 PM 53.6 °F - 5.0 °F 14% 30.07 in 10.0 mi WSW 12.7 mph 18.4 mph N/A   Clear
8:55 PM 51.8 °F - 5.0 °F 15% 30.08 in 10.0 mi WSW 11.5 mph - N/A   Clear
9:15 PM 51.8 °F - 5.0 °F 15% 30.08 in 10.0 mi West 9.2 mph - N/A   Clear
9:35 PM 51.8 °F - 3.2 °F 14% 30.08 in 10.0 mi West 9.2 mph - N/A   Clear
9:55 PM 51.8 °F - 3.2 °F 14% 30.08 in 10.0 mi West 8.1 mph - N/A   Clear
10:15 PM 50.0 °F - 5.0 °F 16% 30.08 in 10.0 mi West 8.1 mph - N/A   Clear
10:35 PM 50.0 °F - 6.8 °F 17% 30.08 in 10.0 mi West 6.9 mph - N/A   Clear
10:55 PM 50.0 °F - 3.2 °F 15% 30.08 in 10.0 mi West 6.9 mph - N/A   Clear
11:15 PM 50.0 °F - 1.4 °F 14% 30.07 in 10.0 mi West 6.9 mph - N/A   Clear
11:35 PM 50.0 °F - 1.4 °F 14% 30.07 in 10.0 mi West 8.1 mph - N/A   Clear
11:55 PM 50.0 °F - -4.0 °F 11% 30.07 in 10.0 mi West 6.9 mph - N/A   Clear